When you browse on this site, cookies collect data to enhance your experience and personalize the content and advertising you see.
Visit our Privacy Policy to learn more. By continuing to use the site, you agree to this use of cookies and data.
  • In Hungary
  • List of Countries
  • For 7 days
  • Water Temperature
  • Weather Map
  • News
  • Weather Widgets
  • user-avatar
    Login

    Hourly Weather Runnyy

    Today, 22 October, Tuesday

    Time Temperature Precipitation Wind Pressure Humidity
    00:00 +12°C° 0 mm 4 mps 766 mmHg 65%
    01:00 +12°C° 0 mm 3 mps 765 mmHg 67%
    02:00 +11°C° 0 mm 3 mps 765 mmHg 70%
    03:00 +11°C° 0 mm 3 mps 765 mmHg 73%
    04:00 +11°C° 0 mm 3 mps 765 mmHg 74%
    05:00 +10°C° 0 mm 3 mps 766 mmHg 75%
    06:00 +10°C° 0 mm 3 mps 766 mmHg 76%
    07:00 +11°C° 0 mm 3 mps 766 mmHg 73%
    08:00 +11°C° 0 mm 3 mps 766 mmHg 71%
    09:00 +12°C° 0 mm 3 mps 766 mmHg 69%
    10:00 +14°C° 0 mm 3 mps 766 mmHg 62%
    11:00 +16°C° 0 mm 3 mps 766 mmHg 55%
    12:00 +18°C° 0 mm 3 mps 766 mmHg 48%
    13:00 +18°C° 0 mm 3 mps 765 mmHg 46%
    14:00 +19°C° 0 mm 3 mps 765 mmHg 43%
    15:00 +19°C° 0 mm 2 mps 765 mmHg 40%
    16:00 +18°C° 0 mm 2 mps 765 mmHg 44%
    17:00 +17°C° 0 mm 2 mps 765 mmHg 47%
    18:00 +16°C° 0 mm 2 mps 765 mmHg 51%
    19:00 +15°C° 0 mm 2 mps 765 mmHg 52%
    20:00 +15°C° 0 mm 2 mps 765 mmHg 54%
    21:00 +15°C° 0 mm 2 mps 765 mmHg 55%
    22:00 +14°C° 0 mm 2 mps 765 mmHg 57%
    23:00 +14°C° 0 mm 2 mps 764 mmHg 59%

    Tomorrow, 23 October, Wednesday

    Time Temperature Precipitation Wind Pressure Humidity
    00:00 +14°C° 0 mm 2 mps 764 mmHg 61%
    01:00 +13°C° 0 mm 2 mps 764 mmHg 61%
    02:00 +13°C° 0 mm 2 mps 764 mmHg 61%
    03:00 +13°C° 0 mm 2 mps 764 mmHg 61%
    04:00 +13°C° 0 mm 2 mps 764 mmHg 62%
    05:00 +12°C° 0 mm 2 mps 764 mmHg 62%
    06:00 +12°C° 0 mm 2 mps 764 mmHg 63%
    07:00 +13°C° 0 mm 2 mps 764 mmHg 61%
    08:00 +14°C° 0 mm 2 mps 765 mmHg 59%
    09:00 +15°C° 0 mm 2 mps 765 mmHg 57%
    10:00 +16°C° 0 mm 2 mps 765 mmHg 52%
    11:00 +17°C° 0 mm 2 mps 765 mmHg 47%
    12:00 +19°C° 0 mm 2 mps 764 mmHg 42%
    13:00 +19°C° 0 mm 2 mps 764 mmHg 40%
    14:00 +19°C° 0 mm 2 mps 764 mmHg 38%
    15:00 +20°C° 0 mm 2 mps 764 mmHg 36%
    16:00 +19°C° 0 mm 2 mps 764 mmHg 39%
    17:00 +17°C° 0 mm 2 mps 764 mmHg 42%
    18:00 +16°C° 0 mm 2 mps 764 mmHg 44%
    19:00 +16°C° 0 mm 2 mps 764 mmHg 45%
    20:00 +15°C° 0 mm 2 mps 764 mmHg 46%
    21:00 +15°C° 0 mm 2 mps 764 mmHg 46%
    22:00 +14°C° 0 mm 2 mps 764 mmHg 48%
    23:00 +13°C° 0 mm 3 mps 764 mmHg 50%

    Day after tomorrow, 24 October, Thursday

    Time Temperature Precipitation Wind Pressure Humidity
    00:00 +12°C° 0 mm 3 mps 764 mmHg 52%
    01:00 +13°C° 0 mm 2 mps 764 mmHg 54%
    02:00 +13°C° 0 mm 2 mps 764 mmHg 55%
    03:00 +12°C° 0 mm 2 mps 764 mmHg 57%
    04:00 +12°C° 0 mm 2 mps 764 mmHg 59%
    05:00 +12°C° 0 mm 2 mps 764 mmHg 61%
    06:00 +12°C° 0 mm 2 mps 764 mmHg 62%
    07:00 +12°C° 0 mm 3 mps 764 mmHg 60%
    08:00 +13°C° 0 mm 3 mps 764 mmHg 58%
    09:00 +13°C° 0 mm 3 mps 764 mmHg 56%
    10:00 +16°C° 0 mm 3 mps 764 mmHg 51%
    11:00 +17°C° 0 mm 4 mps 764 mmHg 45%
    12:00 +19°C° 0 mm 4 mps 763 mmHg 40%
    13:00 +19°C° 0 mm 4 mps 763 mmHg 39%
    14:00 +19°C° 0 mm 4 mps 763 mmHg 38%
    15:00 +19°C° 0 mm 4 mps 763 mmHg 36%
    16:00 +18°C° 0 mm 4 mps 763 mmHg 41%
    17:00 +17°C° 0 mm 4 mps 762 mmHg 45%
    18:00 +14°C° 0 mm 4 mps 762 mmHg 50%
    19:00 +14°C° 0 mm 4 mps 763 mmHg 52%
    20:00 +13°C° 0 mm 3 mps 763 mmHg 54%
    21:00 +13°C° 0 mm 3 mps 763 mmHg 57%
    22:00 +13°C° 0 mm 3 mps 763 mmHg 57%
    23:00 +12°C° 0 mm 4 mps 763 mmHg 58%

    25 October, Friday

    Time Temperature Precipitation Wind Pressure Humidity
    00:00 +12°C° 0 mm 4 mps 762 mmHg 59%
    01:00 +12°C° 0 mm 4 mps 762 mmHg 60%
    02:00 +11°C° 0 mm 4 mps 762 mmHg 62%
    03:00 +11°C° 0 mm 4 mps 762 mmHg 63%
    04:00 +11°C° 0 mm 4 mps 762 mmHg 65%
    05:00 +10°C° 0 mm 4 mps 762 mmHg 66%
    06:00 +10°C° 0 mm 4 mps 762 mmHg 68%
    07:00 +11°C° 0 mm 4 mps 762 mmHg 65%
    08:00 +12°C° 0 mm 4 mps 762 mmHg 61%
    09:00 +13°C° 0 mm 5 mps 763 mmHg 58%
    10:00 +14°C° 0 mm 5 mps 763 mmHg 52%
    11:00 +16°C° 0 mm 5 mps 763 mmHg 46%
    12:00 +17°C° 0 mm 5 mps 763 mmHg 41%
    13:00 +19°C° 0 mm 5 mps 762 mmHg 39%
    14:00 +19°C° 0 mm 5 mps 762 mmHg 38%
    15:00 +19°C° 0 mm 6 mps 762 mmHg 36%
    16:00 +17°C° 0 mm 5 mps 762 mmHg 40%
    17:00 +16°C° 0 mm 5 mps 762 mmHg 44%
    18:00 +15°C° 0 mm 4 mps 762 mmHg 47%
    19:00 +14°C° 0 mm 4 mps 763 mmHg 48%
    20:00 +14°C° 0 mm 4 mps 763 mmHg 48%
    21:00 +13°C° 0 mm 4 mps 763 mmHg 48%
    22:00 +13°C° 0 mm 4 mps 763 mmHg 49%
    23:00 +13°C° 0 mm 4 mps 763 mmHg 50%

    26 October, Saturday

    Time Temperature Precipitation Wind Pressure Humidity
    00:00 +12°C° 0 mm 4 mps 763 mmHg 52%
    01:00 +12°C° 0 mm 4 mps 763 mmHg 54%
    02:00 +12°C° 0 mm 4 mps 763 mmHg 56%
    03:00 +11°C° 0 mm 4 mps 764 mmHg 57%
    04:00 +11°C° 0 mm 4 mps 764 mmHg 58%
    05:00 +11°C° 0 mm 4 mps 764 mmHg 59%
    06:00 +10°C° 0 mm 4 mps 764 mmHg 60%
    07:00 +12°C° 0 mm 4 mps 764 mmHg 56%
    08:00 +13°C° 0 mm 5 mps 764 mmHg 52%
    09:00 +14°C° 0 mm 5 mps 765 mmHg 47%
    10:00 +15°C° 0 mm 6 mps 765 mmHg 42%
    11:00 +17°C° 0 mm 6 mps 765 mmHg 37%
    12:00 +20°C° 0 mm 6 mps 765 mmHg 32%
    13:00 +20°C° 0 mm 6 mps 764 mmHg 32%
    14:00 +20°C° 0 mm 6 mps 764 mmHg 31%
    15:00 +21°C° 0 mm 6 mps 764 mmHg 31%
    16:00 +19°C° 0 mm 6 mps 764 mmHg 36%
    17:00 +17°C° 0 mm 5 mps 764 mmHg 40%
    18:00 +15°C° 0 mm 5 mps 764 mmHg 45%
    19:00 +15°C° 0 mm 5 mps 764 mmHg 47%
    20:00 +15°C° 0 mm 5 mps 764 mmHg 50%
    21:00 +14°C° 0 mm 5 mps 764 mmHg 52%
    22:00 +14°C° 0 mm 5 mps 763 mmHg 56%
    23:00 +13°C° 0 mm 5 mps 763 mmHg 60%

    27 October, Sunday

    Time Temperature Precipitation Wind Pressure Humidity
    00:00 +13°C° 0 mm 4 mps 763 mmHg 64%
    01:00 +13°C° 0 mm 4 mps 763 mmHg 66%
    02:00 +12°C° 0 mm 4 mps 763 mmHg 67%
    03:00 +12°C° 0 mm 4 mps 763 mmHg 68%
    04:00 +12°C° 0 mm 4 mps 763 mmHg 69%
    05:00 +11°C° 0 mm 4 mps 763 mmHg 71%
    06:00 +11°C° 0 mm 4 mps 762 mmHg 72%
    07:00 +12°C° 0 mm 5 mps 762 mmHg 68%
    08:00 +13°C° 0 mm 5 mps 762 mmHg 64%
    09:00 +15°C° 0 mm 6 mps 762 mmHg 60%
    10:00 +16°C° 0 mm 6 mps 762 mmHg 53%
    11:00 +18°C° 0 mm 7 mps 762 mmHg 46%
    12:00 +20°C° 0 mm 7 mps 761 mmHg 39%
    13:00 +21°C° 0 mm 7 mps 761 mmHg 37%
    14:00 +21°C° 0 mm 7 mps 760 mmHg 35%
    15:00 +21°C° 0 mm 7 mps 760 mmHg 33%
    16:00 +20°C° 0 mm 6 mps 760 mmHg 36%
    17:00 +17°C° 0 mm 5 mps 759 mmHg 39%
    18:00 +17°C° 0 mm 4 mps 759 mmHg 42%
    19:00 +15°C° 0 mm 4 mps 759 mmHg 44%
    20:00 +15°C° 0 mm 5 mps 759 mmHg 45%
    21:00 +14°C° 0 mm 5 mps 759 mmHg 47%
    22:00 +14°C° 0 mm 5 mps 759 mmHg 52%
    23:00 +13°C° 0 mm 5 mps 758 mmHg 56%

    28 October, Monday

    Time Temperature Precipitation Wind Pressure Humidity
    00:00 +12°C° 0 mm 4 mps 758 mmHg 61%
    01:00 +12°C° 0 mm 4 mps 758 mmHg 65%
    02:00 +11°C° 0 mm 3 mps 757 mmHg 69%
    03:00 +12°C° 0 mm 2 mps 757 mmHg 74%
    04:00 +12°C° 0 mm 2 mps 757 mmHg 76%
    05:00 +10°C° 0 mm 2 mps 757 mmHg 78%
    06:00 +10°C° 0 mm 2 mps 757 mmHg 81%
    07:00 +12°C° 0 mm 2 mps 757 mmHg 77%
    08:00 +12°C° 0 mm 3 mps 757 mmHg 73%
    09:00 +14°C° 0 mm 3 mps 757 mmHg 70%
    10:00 +15°C° 0 mm 4 mps 757 mmHg 63%
    11:00 +18°C° 0 mm 4 mps 757 mmHg 57%
    12:00 +19°C° 0 mm 4 mps 757 mmHg 50%
    13:00 +19°C° 0 mm 4 mps 757 mmHg 49%
    14:00 +20°C° 0 mm 4 mps 757 mmHg 49%
    15:00 +20°C° 0 mm 4 mps 757 mmHg 48%
    16:00 +19°C° 0 mm 4 mps 757 mmHg 52%
    17:00 +18°C° 0 mm 3 mps 757 mmHg 56%
    18:00 +16°C° 0 mm 3 mps 757 mmHg 60%
    19:00 +16°C° 0 mm 3 mps 757 mmHg 62%
    20:00 +16°C° 0 mm 3 mps 757 mmHg 63%
    21:00 +14°C° 0 mm 3 mps 757 mmHg 65%
    22:00 +14°C° 0 mm 3 mps 757 mmHg 66%
    23:00 +14°C° 0 mm 3 mps 757 mmHg 68%
    Show more